Temperature
13 14 14 14 14 14 13 13 13 13 13 13 13 12 12 13 13 12 12 12 12 12 12 13 12 12 12 12 12 11 11 11 11 11 10 10 10 10 10 10 9 9 9 9
13 14 14 13 14 14 13 13 13 13 13 12 12 12 12 12 12 12 12 12 12 12 12 12 12 12 12 12 11 11 11 11 11 10 10 10 10 10 9 9 9 9 9 9
12 12 13 13 13 13 13 13 13 13 13 12 11 11 11 11 11 12 12 12 12 12 12 12 12 12 11 11 11 11 11 10 10 10 10 10 10 9 9 9 9 9 8 8
11 12 13 13 13 13 13 12 12 12 12 11 11 11 12 12 12 12 12 12 11 12 12 11 11 11 11 11 11 11 10 10 10 10 10 10 9 9 9 9 9 8 8 8
10 11 12 12 13 12 13 12 12 11 11 11 11 11 11 12 12 12 12 12 11 11 11 11 11 11 10 10 10 10 10 10 10 10 9 9 9 9 9 8 8 8 8 8
10 11 12 12 13 13 13 12 12 11 11 10 10 9 10 12 12 11 11 11 11 11 11 10 10 10 10 10 10 10 10 10 9 9 9 9 9 9 8 8 8 8 8 7
10 10 11 11 12 12 12 12 12 12 11 11 10 11 12 11 11 11 11 11 11 10 10 10 10 10 10 10 10 10 9 9 9 9 9 9 8 8 8 8 8 7 7 7
9 10 11 11 11 11 11 12 12 12 12 11 11 12 11 11 11 11 10 10 10 10 10 10 10 10 10 9 9 9 9 9 9 8 8 8 8 8 7 7 7 7 7 7
9 10 10 11 11 12 12 12 12 12 12 11 11 11 11 10 10 10 10 10 10 9 9 9 9 9 9 9 9 8 8 8 8 8 8 8 7 7 7 7 7 7 6 6
8 9 10 11 11 11 11 11 12 12 11 11 11 11 10 10 10 10 10 9 9 9 9 9 9 9 9 8 8 8 8 8 8 8 7 7 7 7 7 6 6 6 6 6
8 8 9 10 11 11 11 11 11 11 11 11 10 10 10 10 9 9 9 9 9 9 8 8 8 8 8 8 8 8 8 7 7 7 7 7 7 6 6 6 6 6 6 6
8 9 8 10 11 11 10 10 10 10 10 10 10 10 10 9 9 9 9 9 8 8 8 8 8 8 8 8 7 7 7 7 7 7 6 6 6 6 6 6 5 5 5 5
10 10 10 10 10 10 10 10 10 10 10 10 10 9 9 9 9 9 8 8 8 8 8 8 7 7 7 7 7 7 7 7 7 6 6 6 6 5 5 5 5 5 5 5
10 9 9 9 9 9 9 9 9 9 9 9 9 9 9 9 9 8 8 8 8 7 7 7 7 7 7 7 7 7 6 6 6 6 6 5 5 5 5 5 5 4 4 4
9 9 9 9 9 9 9 9 9 9 9 9 9 9 9 8 8 8 8 7 7 7 7 7 7 6 6 6 6 6 6 6 6 5 5 5 5 4 4 4 4 4 4 4
9 8 8 8 8 8 8 8 8 8 8 8 8 8 8 8 8 7 7 7 7 7 7 6 6 6 6 6 5 5 5 5 5 5 5 5 4 4 4 4 4 4 4 4
8 8 8 8 8 8 8 7 7 7 7 7 7 7 7 7 7 7 7 6 6 6 6 6 6 5 5 5 5 5 5 5 5 4 4 4 4 4 4 4 3 3 3 3
8 8 8 8 8 7 7 7 7 7 7 7 6 6 6 6 6 6 6 6 6 6 5 5 5 5 5 5 5 4 4 4 4 4 4 4 4 4 4 4 3 3 3 3
8 8 8 7 7 7 7 7 6 6 6 6 6 6 6 6 6 6 5 5 5 5 5 5 4 4 4 4 4 4 4 4 4 4 3 3 3 3 3 3 3 3 3 3
8 7 7 7 7 7 6 6 6 6 6 6 6 5 5 5 5 5 5 5 5 5 4 4 4 4 4 4 4 4 3 3 3 3 3 3 3 3 3 3 3 3 3 3
7 7 7 7 6 6 6 6 6 6 5 5 5 5 5 5 5 4 4 4 4 4 4 4 3 3 3 3 3 3 3 3 3 3 3 3 3 3 3 3 3 3 3 3
7 6 6 6 6 6 6 5 5 5 5 5 5 5 4 4 4 4 4 4 4 4 3 3 3 3 3 3 3 3 3 3 3 3 2 2 2 2 2 2 2 2 2 2
6 6 6 6 5 5 5 5 5 5 5 4 4 4 4 4 4 4 4 4 3 3 3 3 3 3 3 2 2 2 2 2 2 2 2 2 2 2 2 2 2 2 2 2
6 5 5 5 5 5 4 4 4 4 4 4 4 4 4 4 4 3 3 3 3 3 3 3 3 2 2 2 2 2 2 2 2 2 2 2 2 2 2 2 2 2 2 2
5 5 5 4 4 4 4 4 4 4 4 4 4 3 3 3 3 3 3 3 3 3 3 3 2 2 2 2 2 2 2 2 1 1 1 1 1 1 1 1 1 1 2 2
5 4 4 4 4 4 3 3 3 3 3 3 3 3 3 3 3 2 2 2 2 2 2 2 2 2 2 2 1 1 1 1 1 1 1 1 1 1 1 1 1 1 1 1
4 4 4 4 3 3 3 3 3 3 3 3 3 3 2 2 2 2 2 2 2 2 2 2 2 1 1 1 1 1 1 1 1 1 1 1 1 1 1 1 1 1 1 1
Wind_Speed
6 6 4 5 6 5 7 7 8 7 8 8 6 5 4 3 1 1 1 2 3 3 3 2 2 2 2 2 2 4 4 3 3 3 3 3 3 3 2 2 2 2 2 1
4 3 3 4 7 7 6 5 6 5 7 5 3 1 1 1 2 2 2 3 3 3 3 3 3 3 2 2 2 3 4 3 2 2 3 3 3 3 3 2 1 2 2 2
3 4 3 5 5 5 4 4 5 7 7 2 1 2 3 3 3 3 3 2 3 4 4 4 4 4 4 4 3 3 3 3 3 3 3 3 3 3 3 3 2 2 2 2
1 2 4 5 1 2 3 4 4 4 3 3 4 2 2 3 4 3 3 2 3 3 3 3 3 2 2 3 3 4 4 4 3 3 3 2 3 3 3 2 3 2 2 2
2 2 5 5 2 1 3 4 3 4 3 2 1 2 3 2 2 3 3 3 3 3 3 2 3 3 3 2 3 3 4 4 4 4 4 3 3 3 3 3 2 2 2 2
3 3 5 5 4 2 1 4 2 3 3 2 2 0 4 3 1 1 1 1 1 1 2 2 2 3 3 3 3 3 3 3 3 4 4 4 4 3 2 2 2 2 1 2
4 4 6 5 4 1 2 5 3 2 3 4 4 5 4 2 1 1 1 1 1 2 2 3 3 4 4 3 3 3 3 3 2 3 4 4 3 2 2 2 2 1 1 1
3 3 6 4 1 2 4 3 1 2 3 4 4 2 1 1 1 1 0 0 1 1 1 1 3 4 3 3 3 2 2 2 2 2 3 2 3 2 2 2 2 1 1 1
5 5 3 1 2 3 1 1 2 2 3 3 2 2 2 1 1 1 1 1 1 1 1 1 2 3 4 3 3 3 2 2 2 2 1 2 3 3 2 2 2 2 1 2
2 4 4 3 2 3 2 2 2 2 1 2 3 3 2 2 1 1 1 1 1 2 2 1 2 2 3 3 3 3 3 2 2 2 1 1 1 2 2 2 2 2 2 2
3 4 5 4 3 3 3 2 3 2 1 2 2 2 2 2 2 1 0 0 1 2 3 3 2 2 2 3 4 3 3 2 2 2 2 2 1 1 2 3 3 3 3 3
5 5 4 5 5 3 2 3 3 2 2 2 2 2 2 2 1 1 1 1 1 1 2 2 2 2 2 3 4 4 3 2 2 2 2 1 1 0 1 1 1 1 1 2
5 4 3 4 4 3 3 3 3 3 3 3 2 2 2 1 1 1 1 1 1 2 2 2 2 2 1 2 3 4 3 3 2 2 2 2 1 1 1 2 2 1 1 1
3 1 2 3 3 4 3 3 3 2 2 2 2 1 1 1 1 1 1 2 1 1 1 2 2 2 2 2 3 3 3 3 3 3 3 2 2 2 2 1 0 1 2 1
3 2 3 3 2 2 2 2 2 2 2 2 1 1 2 2 2 2 1 0 1 1 1 2 2 1 1 2 2 3 3 2 2 2 2 2 2 2 2 2 1 1 1 2
2 2 1 1 2 2 1 1 1 2 2 2 1 1 2 2 1 1 0 1 2 2 2 2 2 1 1 2 2 2 2 2 2 2 2 2 2 2 2 2 2 2 2 2
1 2 2 2 2 2 2 2 2 2 1 1 1 1 1 1 1 1 1 1 1 1 1 2 1 1 1 2 2 2 1 2 2 1 2 2 2 3 3 2 3 3 3 3
5 5 4 4 3 3 2 2 2 2 2 2 1 1 1 1 1 1 1 0 1 1 0 0 1 1 1 1 2 2 2 2 2 2 2 2 2 2 2 2 3 3 2 2
3 2 2 2 2 2 2 2 2 2 2 1 1 2 1 2 1 1 0 1 1 1 2 1 0 1 0 1 1 2 2 2 1 1 1 1 1 1 2 2 2 3 2 2
1 1 1 1 1 1 2 2 2 1 1 1 1 1 1 1 1 1 1 2 2 2 1 1 1 1 1 1 1 1 2 2 1 1 1 1 1 1 2 2 2 2 3 3
1 1 1 1 2 2 2 2 2 2 1 1 2 2 3 2 2 1 1 2 3 1 1 1 1 1 1 1 1 1 1 2 2 1 1 1 1 2 2 2 2 3 3 3
1 1 1 1 1 2 2 1 1 1 1 1 1 1 2 2 2 2 3 3 2 2 1 1 1 2 2 2 2 2 2 2 2 2 2 2 2 2 2 3 3 3 3 3
2 2 2 2 2 2 2 2 1 2 2 2 3 3 3 3 3 3 3 3 2 2 1 2 3 3 3 2 2 2 2 2 2 2 2 2 2 3 3 3 3 3 3 3
2 2 2 2 1 1 2 3 2 2 3 3 3 3 3 2 3 3 3 3 3 3 2 3 4 3 2 1 2 2 2 2 2 2 2 2 2 3 3 3 4 4 3 4
2 2 2 1 2 2 3 3 2 2 2 2 3 3 3 3 3 3 2 3 3 3 2 3 4 3 2 2 2 2 2 3 3 2 3 3 3 3 3 4 4 4 3 3
2 3 3 3 3 3 2 2 2 2 2 2 3 3 2 2 2 2 2 3 3 3 2 2 2 2 2 2 2 2 3 3 3 3 3 3 4 4 3 4 4 4 3 3
2 2 2 2 2 2 2 2 3 3 3 3 3 3 2 2 2 2 2 2 2 2 2 2 2 2 2 2 2 2 2 2 3 3 3 3 3 3 4 4 4 3 3 4
Wind_Direction
243 247 225 243 249 214 203 205 209 231 231 248 254 247 251 231 204 152 167 179 188 195 194 187 178 191 191 190 181 166 160 172 195 191 176 167 167 173 183 190 186 173 168 178
288 273 243 258 262 236 226 222 228 244 256 250 255 203 216 212 187 200 220 218 206 197 197 199 197 202 199 193 187 163 167 184 182 173 170 169 172 169 169 180 181 165 181 191
276 297 321 273 255 223 217 218 198 225 247 242 228 221 220 214 211 219 228 232 220 211 209 210 208 203 200 197 177 167 174 182 172 171 179 187 179 170 178 185 178 182 194 191
273 355 249 249 277 190 211 238 224 231 245 210 213 236 251 209 201 226 237 237 234 229 219 213 203 196 193 180 171 174 177 184 181 176 183 188 181 187 193 189 191 195 203 214
152 250 277 295 287 191 212 269 236 217 228 207 136 35 326 265 218 221 225 226 224 223 212 191 185 183 171 170 171 175 184 190 190 183 183 185 192 196 191 181 188 203 207 212
161 208 243 262 294 300 175 274 275 202 212 197 119 278 267 263 250 251 276 256 228 203 167 169 192 169 151 164 168 190 201 203 195 188 187 193 197 191 186 184 193 190 208 228
195 224 259 277 305 32 180 259 283 215 211 190 205 229 244 229 236 241 230 224 160 146 166 189 185 158 158 172 192 207 196 183 178 188 194 191 185 178 170 171 165 178 200 262
176 208 256 307 74 171 239 288 294 242 223 205 224 246 237 207 220 233 202 130 143 147 177 188 170 161 165 191 201 183 165 162 176 179 188 180 166 164 161 160 160 180 199 288
195 215 257 268 227 282 307 296 291 269 257 210 221 242 233 223 221 224 196 182 176 164 168 185 176 168 175 197 181 160 147 159 174 161 155 160 166 166 160 172 184 205 211 239
256 278 290 291 317 321 312 285 294 293 263 211 223 229 223 215 225 221 186 169 157 145 164 204 204 186 185 178 169 158 156 163 156 142 136 129 144 166 175 189 197 211 223 236
254 285 314 305 298 298 310 322 332 337 313 230 205 233 224 213 221 215 195 184 179 183 190 202 194 181 164 154 149 150 156 160 157 156 159 153 156 187 199 209 203 203 215 212
240 241 225 265 272 281 287 291 283 291 306 294 230 222 213 214 217 191 178 179 179 179 179 183 176 174 166 159 157 154 158 168 175 166 164 159 158 335 305 252 242 232 210 194
245 267 248 263 273 273 264 271 271 250 241 255 262 232 201 207 202 156 148 171 201 203 186 168 159 168 178 170 168 165 171 179 176 170 175 176 175 183 260 336 9 9 336 219
265 297 287 273 271 286 286 287 299 296 281 257 243 214 167 156 138 170 210 233 240 176 160 159 160 190 204 178 168 170 172 179 174 181 188 189 191 203 203 202 254 324 327 325
278 245 239 264 297 320 330 344 6 338 324 320 283 173 167 173 194 225 248 287 127 139 157 156 172 211 198 169 167 173 174 180 179 178 185 189 188 190 192 203 214 237 334 342
287 314 283 248 261 292 341 357 344 312 315 323 303 242 209 187 179 156 65 157 159 185 199 186 200 208 173 163 167 168 177 189 169 170 177 179 179 183 197 205 214 218 228 245
214 273 264 260 260 268 268 258 232 249 283 283 264 270 89 90 77 49 325 257 188 201 198 188 200 190 172 169 165 168 164 174 169 171 188 193 197 203 208 208 216 225 236 235
216 224 225 222 231 253 270 274 255 238 239 252 225 110 122 161 216 243 274 270 91 50 8 184 159 169 173 176 165 164 160 164 178 187 189 200 210 212 211 217 225 231 249 252
229 221 227 233 238 230 242 255 255 250 254 224 178 195 221 234 241 262 307 152 164 241 282 270 160 109 152 233 135 148 150 158 166 175 194 207 214 217 218 224 233 237 236 238
257 240 242 265 281 262 254 261 256 255 245 208 184 195 237 254 244 244 243 220 229 241 244 236 193 181 200 217 148 153 164 173 177 174 188 212 230 242 238 241 241 241 242 240
295 294 288 283 294 295 271 247 228 243 250 209 198 213 229 241 233 216 222 257 274 248 204 214 198 209 206 210 189 164 179 183 188 195 205 225 241 255 255 256 258 254 251 248
288 280 271 270 276 297 299 272 235 235 245 246 242 228 221 234 242 251 250 243 251 240 214 212 218 225 222 196 166 178 190 197 201 203 215 228 233 245 257 260 260 263 260 256
256 258 255 254 246 259 296 293 260 239 239 238 233 230 230 232 224 223 263 261 236 244 234 223 234 234 229 181 178 189 197 207 214 217 224 231 236 240 249 258 262 264 265 262
251 249 247 246 212 231 275 282 277 264 253 250 242 234 224 235 258 249 246 252 247 241 224 232 232 229 217 176 189 196 207 222 230 232 235 238 239 244 250 255 260 261 261 265
245 242 238 219 224 244 253 267 284 282 269 271 270 257 238 221 230 250 251 242 245 240 233 231 223 222 205 192 202 212 217 225 231 233 236 241 243 246 252 254 255 258 261 262
238 235 237 234 234 241 241 237 246 257 255 269 281 272 262 250 238 240 236 238 231 236 233 222 214 216 205 207 219 227 228 237 249 248 242 246 249 250 255 259 258 257 261 265
246 247 249 272 272 247 233 232 240 249 242 241 263 268 259 252 244 241 235 232 226 227 228 223 215 211 212 218 228 236 238 237 239 242 246 250 252 254 254 254 255 256 260 266
Height
1501 1498 1498 1499 1498 1498 1501 1502 1506 1502 1500 1495 1493 1492 1491 1491 1491 1492 1492 1492 1493 1494 1495 1496 1497 1499 1500 1501 1502 1503 1504 1505 1506 1507 1507 1508 1509 1509 1510 1511 1511 1511 1511 1511
1501 1496 1496 1498 1495 1494 1496 1496 1497 1496 1496 1490 1490 1489 1490 1489 1489 1490 1490 1490 1490 1491 1492 1493 1495 1496 1497 1498 1499 1500 1501 1502 1503 1504 1505 1505 1506 1506 1507 1508 1508 1508 1508 1508
1507 1500 1497 1499 1493 1492 1493 1492 1493 1494 1491 1488 1489 1488 1487 1487 1488 1488 1488 1489 1489 1489 1490 1491 1492 1493 1494 1495 1497 1498 1498 1499 1500 1501 1502 1502 1503 1503 1504 1504 1505 1505 1505 1505
1508 1504 1505 1496 1488 1488 1489 1488 1488 1487 1486 1486 1486 1486 1485 1486 1486 1486 1486 1486 1487 1487 1488 1489 1490 1491 1492 1493 1493 1494 1495 1496 1497 1498 1498 1499 1500 1500 1501 1501 1502 1502 1501 1501
1510 1509 1503 1493 1488 1488 1489 1488 1485 1485 1485 1485 1485 1485 1484 1484 1484 1484 1484 1484 1485 1485 1485 1486 1487 1488 1489 1490 1491 1491 1492 1493 1494 1495 1495 1496 1496 1497 1498 1498 1498 1498 1498 1498
1508 1506 1505 1493 1486 1484 1487 1488 1483 1483 1483 1484 1484 1487 1484 1482 1482 1482 1482 1482 1482 1482 1483 1483 1484 1485 1486 1487 1487 1488 1489 1490 1491 1491 1492 1492 1493 1494 1494 1495 1495 1495 1495 1495
1506 1505 1499 1489 1485 1485 1493 1490 1482 1481 1481 1482 1482 1482 1481 1480 1479 1479 1479 1479 1479 1479 1480 1480 1481 1482 1483 1484 1485 1486 1487 1487 1487 1488 1489 1489 1490 1490 1491 1491 1492 1492 1492 1492
1506 1505 1500 1486 1486 1488 1487 1482 1480 1480 1479 1479 1479 1478 1478 1478 1477 1477 1476 1476 1476 1477 1477 1478 1478 1479 1480 1481 1482 1483 1484 1484 1485 1485 1485 1486 1487 1487 1488 1488 1488 1489 1489 1489
1496 1495 1488 1485 1485 1484 1482 1481 1480 1479 1478 1478 1477 1477 1476 1476 1475 1475 1474 1474 1474 1474 1475 1475 1476 1477 1477 1478 1479 1480 1481 1481 1482 1482 1483 1483 1483 1484 1484 1485 1485 1485 1486 1485
1492 1488 1485 1484 1483 1482 1482 1480 1479 1478 1477 1476 1475 1475 1474 1474 1474 1473 1472 1472 1472 1472 1472 1473 1473 1474 1475 1476 1477 1478 1478 1478 1479 1479 1480 1480 1481 1481 1481 1482 1482 1482 1483 1482
1490 1486 1484 1482 1482 1481 1480 1479 1478 1477 1476 1475 1474 1473 1473 1472 1472 1472 1471 1471 1471 1470 1470 1470 1471 1472 1473 1473 1474 1475 1475 1476 1476 1477 1477 1478 1478 1479 1479 1479 1480 1480 1480 1480
1487 1483 1483 1481 1480 1480 1479 1477 1476 1475 1474 1473 1473 1472 1472 1471 1471 1470 1470 1469 1469 1468 1468 1469 1469 1470 1470 1471 1472 1472 1473 1474 1474 1474 1475 1475 1475 1476 1476 1477 1477 1478 1478 1478
1481 1480 1479 1478 1478 1477 1476 1475 1474 1473 1472 1471 1471 1471 1470 1470 1469 1469 1468 1468 1467 1466 1467 1467 1467 1468 1468 1469 1470 1470 1471 1471 1472 1472 1472 1472 1473 1473 1473 1474 1475 1475 1475 1475
1478 1478 1476 1476 1475 1475 1474 1473 1472 1470 1470 1469 1469 1469 1468 1468 1468 1467 1467 1466 1466 1465 1465 1465 1466 1466 1467 1467 1468 1468 1469 1469 1470 1470 1470 1470 1470 1471 1471 1471 1471 1471 1472 1472
1475 1475 1474 1473 1473 1472 1471 1470 1469 1468 1467 1467 1467 1466 1466 1466 1466 1466 1465 1465 1464 1464 1463 1463 1464 1464 1465 1465 1466 1466 1467 1467 1467 1468 1468 1468 1468 1468 1469 1469 1469 1469 1469 1469
1472 1472 1471 1471 1470 1469 1469 1468 1467 1466 1466 1465 1465 1465 1465 1464 1464 1463 1463 1463 1462 1461 1461 1461 1461 1462 1462 1463 1463 1464 1464 1465 1465 1466 1466 1466 1466 1466 1466 1466 1467 1466 1466 1467
1470 1469 1468 1468 1468 1467 1467 1467 1466 1465 1464 1464 1463 1463 1463 1463 1462 1461 1461 1461 1460 1460 1460 1459 1459 1459 1460 1460 1460 1461 1462 1462 1463 1463 1464 1464 1464 1464 1464 1464 1464 1464 1464 1464
1467 1467 1467 1466 1466 1465 1465 1465 1464 1464 1463 1463 1462 1462 1461 1460 1460 1460 1459 1459 1458 1458 1458 1458 1458 1458 1458 1458 1458 1459 1459 1460 1460 1461 1461 1461 1462 1462 1462 1462 1462 1462 1461 1462
1465 1465 1465 1465 1464 1464 1463 1463 1462 1462 1462 1461 1460 1460 1459 1459 1459 1458 1458 1457 1456 1455 1456 1455 1455 1455 1456 1456 1457 1457 1457 1458 1458 1458 1459 1459 1459 1460 1460 1459 1459 1459 1459 1459
1463 1463 1463 1463 1463 1462 1461 1461 1460 1460 1459 1459 1458 1458 1457 1457 1457 1456 1455 1455 1455 1454 1454 1454 1454 1454 1454 1454 1455 1455 1455 1455 1456 1456 1456 1456 1457 1457 1457 1457 1457 1456 1456 1455
1461 1461 1461 1461 1460 1460 1459 1459 1458 1458 1457 1457 1456 1456 1455 1455 1455 1454 1453 1452 1453 1453 1452 1452 1452 1452 1452 1452 1453 1453 1453 1453 1453 1453 1453 1454 1454 1454 1454 1454 1454 1453 1453 1452
1459 1459 1459 1459 1458 1457 1457 1457 1456 1456 1455 1455 1454 1454 1453 1453 1452 1452 1451 1451 1450 1450 1450 1450 1450 1450 1450 1450 1450 1450 1451 1451 1451 1451 1451 1451 1451 1451 1451 1451 1450 1450 1449 1449
1458 1457 1457 1457 1456 1455 1455 1454 1454 1453 1453 1452 1452 1452 1451 1451 1450 1449 1448 1448 1448 1447 1447 1447 1447 1448 1448 1448 1448 1448 1448 1448 1448 1448 1448 1448 1448 1448 1448 1447 1447 1446 1446 1445
1455 1455 1454 1454 1453 1453 1452 1451 1451 1451 1450 1450 1449 1449 1449 1448 1447 1446 1446 1446 1445 1445 1444 1444 1445 1445 1445 1445 1445 1445 1445 1445 1445 1446 1446 1446 1445 1445 1445 1444 1443 1443 1442 1442
1453 1452 1452 1451 1450 1450 1449 1449 1448 1447 1447 1446 1446 1446 1446 1445 1444 1443 1443 1442 1442 1442 1441 1442 1442 1442 1442 1442 1442 1442 1442 1442 1443 1443 1442 1442 1442 1442 1441 1441 1440 1440 1439 1438
1450 1449 1449 1448 1448 1447 1446 1446 1445 1444 1444 1443 1443 1442 1442 1441 1441 1440 1439 1439 1439 1439 1438 1439 1439 1439 1439 1439 1439 1439 1439 1439 1439 1439 1439 1439 1439 1439 1438 1437 1437 1436 1435 1434
1447 1446 1446 1445 1445 1444 1443 1443 1442 1441 1441 1440 1439 1439 1439 1438 1437 1436 1436 1436 1435 1435 1435 1435 1435 1435 1436 1436 1436 1436 1436 1436 1436 1436 1436 1436 1435 1435 1434 1434 1433 1432 1431 1430